Year,Month,Day,Hour,Minute,Value (Times are PST for temperature in C)
2006,09,13,00,00,12.20
2006,09,13,00,01,12.20
2006,09,13,00,02,12.20
2006,09,13,00,03,12.20
2006,09,13,00,04,12.20
2006,09,13,00,05,12.20
2006,09,13,00,06,12.20
2006,09,13,00,07,12.20
2006,09,13,00,08,12.30
2006,09,13,00,09,12.30
2006,09,13,00,10,12.30
2006,09,13,00,11,12.30
2006,09,13,00,12,12.30
2006,09,13,00,13,12.30
2006,09,13,00,14,12.30
2006,09,13,00,15,12.30
2006,09,13,00,16,12.30
2006,09,13,00,17,12.30
2006,09,13,00,18,12.40
2006,09,13,00,19,12.40
2006,09,13,00,20,12.40
2006,09,13,00,21,12.40
2006,09,13,00,22,12.40
2006,09,13,00,23,12.40
2006,09,13,00,24,12.40
2006,09,13,00,25,12.40
2006,09,13,00,26,12.40
2006,09,13,00,27,12.40
2006,09,13,00,28,12.40
2006,09,13,00,29,12.40
2006,09,13,00,30,12.40
2006,09,13,00,31,12.40
2006,09,13,00,32,12.40
2006,09,13,00,33,12.50
2006,09,13,00,34,12.50
2006,09,13,00,35,12.50
2006,09,13,00,36,12.50
2006,09,13,00,37,12.50
2006,09,13,00,38,12.50
2006,09,13,00,39,12.50
2006,09,13,00,40,12.50
2006,09,13,00,41,12.50
2006,09,13,00,42,12.50
2006,09,13,00,43,12.50
2006,09,13,00,44,12.50
2006,09,13,00,45,12.50
2006,09,13,00,46,12.40
2006,09,13,00,47,12.40
2006,09,13,00,48,12.40
2006,09,13,00,49,12.40
2006,09,13,00,50,12.40
2006,09,13,00,51,12.40
2006,09,13,00,52,12.40
2006,09,13,00,53,12.40
2006,09,13,00,54,12.40
2006,09,13,00,55,12.40
2006,09,13,00,56,12.40
2006,09,13,00,57,12.40
2006,09,13,00,58,12.40
2006,09,13,00,59,12.40
2006,09,13,01,00,12.40
2006,09,13,01,01,12.40
2006,09,13,01,02,12.50
2006,09,13,01,03,12.50
2006,09,13,01,04,12.50
2006,09,13,01,05,12.50
2006,09,13,01,06,12.50
2006,09,13,01,07,12.50
2006,09,13,01,08,12.50
2006,09,13,01,09,12.60
2006,09,13,01,10,12.60
2006,09,13,01,11,12.60
2006,09,13,01,12,12.60
2006,09,13,01,13,12.60
2006,09,13,01,14,12.60
2006,09,13,01,15,12.60
2006,09,13,01,16,12.60
2006,09,13,01,17,12.50
2006,09,13,01,18,12.50
2006,09,13,01,19,12.50
2006,09,13,01,20,12.40
2006,09,13,01,21,12.40
2006,09,13,01,22,12.40
2006,09,13,01,23,12.30
2006,09,13,01,24,12.30
2006,09,13,01,25,12.30
2006,09,13,01,26,12.30
2006,09,13,01,27,12.30
2006,09,13,01,28,12.30
2006,09,13,01,29,12.30
2006,09,13,01,30,12.30
2006,09,13,01,31,12.30
2006,09,13,01,32,12.30
2006,09,13,01,33,12.30
2006,09,13,01,34,12.30
2006,09,13,09,46,13.60
2006,09,13,09,47,13.60
2006,09,13,09,48,13.60
2006,09,13,09,49,13.70
2006,09,13,09,50,13.70
2006,09,13,09,51,13.70
2006,09,13,09,52,13.80
2006,09,13,09,53,13.80
2006,09,13,09,54,13.90
2006,09,13,09,55,13.90
2006,09,13,09,56,14.00
2006,09,13,09,57,14.00
2006,09,13,09,58,14.10
2006,09,13,09,59,14.10
2006,09,13,10,00,14.10
2006,09,13,10,01,14.10
2006,09,13,10,02,14.10
2006,09,13,10,03,14.10
2006,09,13,10,04,14.10
2006,09,13,10,05,14.10
2006,09,13,10,06,14.10
2006,09,13,10,07,14.10
2006,09,13,10,08,14.10
2006,09,13,10,09,14.10
2006,09,13,10,10,14.10
2006,09,13,10,11,14.20
2006,09,13,10,12,14.20
2006,09,13,10,13,14.20
2006,09,13,10,14,14.10
2006,09,13,10,15,14.10
2006,09,13,10,16,14.10
2006,09,13,10,17,14.10
2006,09,13,10,18,14.10
2006,09,13,10,19,14.10
2006,09,13,10,20,14.10
2006,09,13,10,21,14.10
2006,09,13,10,22,14.00
2006,09,13,10,23,14.00
2006,09,13,10,24,14.00
2006,09,13,10,25,14.00
2006,09,13,10,26,14.00
2006,09,13,10,27,14.10
2006,09,13,10,28,14.10
2006,09,13,10,29,14.10
2006,09,13,10,30,14.10
2006,09,13,10,31,14.20
2006,09,13,10,32,14.20
2006,09,13,10,33,14.20
2006,09,13,10,34,14.20
2006,09,13,10,35,14.20
2006,09,13,10,36,14.20
2006,09,13,10,37,14.20
2006,09,13,10,38,14.20
2006,09,13,10,39,14.20
2006,09,13,10,40,14.20
2006,09,13,10,41,14.20
2006,09,13,10,42,14.20
2006,09,13,10,43,14.20
2006,09,13,10,44,14.20
2006,09,13,10,45,14.20
2006,09,13,10,46,14.20
2006,09,13,10,47,14.20
2006,09,13,10,48,14.20
2006,09,13,10,49,14.20
2006,09,13,10,50,14.20
2006,09,13,10,51,14.20
2006,09,13,10,52,14.20
2006,09,13,10,53,14.20
2006,09,13,10,54,14.30
2006,09,13,10,55,14.30
2006,09,13,10,56,14.30
2006,09,13,10,57,14.30
2006,09,13,10,58,14.30
2006,09,13,10,59,14.40
2006,09,13,11,00,14.40
2006,09,13,11,01,14.50
2006,09,13,11,02,14.40
2006,09,13,11,03,14.50
2006,09,13,11,04,14.40
2006,09,13,11,05,14.40
2006,09,13,11,06,14.40
2006,09,13,11,07,14.30
2006,09,13,11,08,14.30
2006,09,13,11,09,14.30
2006,09,13,11,10,14.30
2006,09,13,11,11,14.30
2006,09,13,11,12,14.30
2006,09,13,11,13,14.30
2006,09,13,11,14,14.30
2006,09,13,11,15,14.30
2006,09,13,11,16,14.30
2006,09,13,11,17,14.40
2006,09,13,11,18,14.40
2006,09,13,11,19,14.40
2006,09,13,11,20,14.50
2006,09,13,11,21,14.50
2006,09,13,11,22,14.50
2006,09,13,11,23,14.50
2006,09,13,11,24,14.50
2006,09,13,11,25,14.40
2006,09,13,11,26,14.40
2006,09,13,11,27,14.40
2006,09,13,11,28,14.40
2006,09,13,11,29,14.40
2006,09,13,11,30,14.40
2006,09,13,11,31,14.40
2006,09,13,11,32,14.40
2006,09,13,11,33,14.40
2006,09,13,11,34,14.40
2006,09,13,11,35,14.40
2006,09,13,11,36,14.30
2006,09,13,11,37,14.30
2006,09,13,11,38,14.30
2006,09,13,11,39,14.20
2006,09,13,11,40,14.20
2006,09,13,11,41,14.30
2006,09,13,11,42,14.30
2006,09,13,11,43,14.30
2006,09,13,11,44,14.30
2006,09,13,11,45,14.20
2006,09,13,11,46,14.20
2006,09,13,11,47,14.20
2006,09,13,11,48,14.20
2006,09,13,11,49,14.30
2006,09,13,11,50,14.30
2006,09,13,11,51,14.30
2006,09,13,11,52,14.30
2006,09,13,11,53,14.30
2006,09,13,11,54,14.30
2006,09,13,11,55,14.30
2006,09,13,11,56,14.40
2006,09,13,11,57,14.40
2006,09,13,11,58,14.40
2006,09,13,11,59,14.40
2006,09,13,12,00,14.30
2006,09,13,12,01,14.30
2006,09,13,12,02,14.30
2006,09,13,12,03,14.30
2006,09,13,12,04,14.30
2006,09,13,12,05,14.30
2006,09,13,12,06,14.40
2006,09,13,12,07,14.40
2006,09,13,12,08,14.40
2006,09,13,12,09,14.40
2006,09,13,12,10,14.40
2006,09,13,12,11,14.40
2006,09,13,12,12,14.40
2006,09,13,12,13,14.40
2006,09,13,12,14,14.40
2006,09,13,12,15,14.40
2006,09,13,12,16,14.30
2006,09,13,12,17,14.30
2006,09,13,12,18,14.30
2006,09,13,12,19,14.30
2006,09,13,12,20,14.20
2006,09,13,12,21,14.20
2006,09,13,12,22,14.20
2006,09,13,12,23,14.20
2006,09,13,12,24,14.20
2006,09,13,12,25,14.20
2006,09,13,12,26,14.20
2006,09,13,12,27,14.20
2006,09,13,12,28,14.30
2006,09,13,12,29,14.30
2006,09,13,12,30,14.30
2006,09,13,12,31,14.20
2006,09,13,12,32,14.20
2006,09,13,12,33,14.20
2006,09,13,12,34,14.20
2006,09,13,12,35,14.20
2006,09,13,12,36,14.20
2006,09,13,12,37,14.20
2006,09,13,12,38,14.10
2006,09,13,12,39,14.10
2006,09,13,12,40,14.10
2006,09,13,12,41,14.10
2006,09,13,12,42,14.10
2006,09,13,12,43,14.10
2006,09,13,12,44,14.00
2006,09,13,12,45,14.10
2006,09,13,12,46,14.10
2006,09,13,12,47,14.10
2006,09,13,12,48,14.10
2006,09,13,12,49,14.10
2006,09,13,12,50,14.10
2006,09,13,12,51,14.10
2006,09,13,12,52,14.10
2006,09,13,12,53,14.10
2006,09,13,12,54,14.00
2006,09,13,12,55,14.00
2006,09,13,12,56,14.00
2006,09,13,12,57,14.00
2006,09,13,12,58,14.10
2006,09,13,12,59,14.10
2006,09,13,13,00,14.10
2006,09,13,13,01,14.10
2006,09,13,13,02,14.10
2006,09,13,13,03,14.10
2006,09,13,13,04,14.20
2006,09,13,13,05,14.20
2006,09,13,13,06,14.20
2006,09,13,13,07,14.20
2006,09,13,13,08,14.20
2006,09,13,13,09,14.10
2006,09,13,13,10,14.10
2006,09,13,13,11,14.10
2006,09,13,13,12,14.10
2006,09,13,13,13,14.10
2006,09,13,13,14,14.10
2006,09,13,13,15,14.10
2006,09,13,13,16,14.10
2006,09,13,13,17,14.10
2006,09,13,13,18,14.00
2006,09,13,13,19,14.00
2006,09,13,13,20,13.90
2006,09,13,13,21,14.00
2006,09,13,13,22,13.90
2006,09,13,13,23,13.90
2006,09,13,13,24,13.90
2006,09,13,13,25,13.80
2006,09,13,13,26,13.90
2006,09,13,13,27,13.90
2006,09,13,13,28,13.90
2006,09,13,13,29,13.90
2006,09,13,13,30,13.90
2006,09,13,13,31,14.00
2006,09,13,13,32,14.00
2006,09,13,13,33,14.10
2006,09,13,13,34,14.20
2006,09,13,13,35,14.30
2006,09,13,13,36,14.30
2006,09,13,13,37,14.30
2006,09,13,13,38,14.30
2006,09,13,13,39,14.30
2006,09,13,13,40,14.30
2006,09,13,13,41,14.30
2006,09,13,13,42,14.40
2006,09,13,13,43,14.40
2006,09,13,13,44,14.40
2006,09,13,13,45,14.40
2006,09,13,13,46,14.30
2006,09,13,13,47,14.40
2006,09,13,13,48,14.50
2006,09,13,13,49,14.50
2006,09,13,13,50,14.50
2006,09,13,13,51,14.50
2006,09,13,13,52,14.50
2006,09,13,13,53,14.50
2006,09,13,13,54,14.50
2006,09,13,13,55,14.50
2006,09,13,13,56,14.60
2006,09,13,13,57,14.60
2006,09,13,13,58,14.60
2006,09,13,13,59,14.60
2006,09,13,14,00,14.70
2006,09,13,14,01,14.80
2006,09,13,14,02,14.80
2006,09,13,14,03,15.00
2006,09,13,14,04,15.00
2006,09,13,14,05,15.00
2006,09,13,14,06,15.00
2006,09,13,14,07,15.00
2006,09,13,14,08,15.00
2006,09,13,14,09,15.10
2006,09,13,14,10,15.00
2006,09,13,14,11,15.00
2006,09,13,14,12,15.00
2006,09,13,14,13,15.00
2006,09,13,14,14,15.00
2006,09,13,14,15,15.00
2006,09,13,14,16,15.00
2006,09,13,14,17,15.00
2006,09,13,14,18,15.00
2006,09,13,14,19,15.00
2006,09,13,14,20,14.90
2006,09,13,14,21,15.00
2006,09,13,14,22,15.00
2006,09,13,14,23,15.00
2006,09,13,14,24,15.00
2006,09,13,14,25,15.00
2006,09,13,14,26,15.00
2006,09,13,14,27,15.00
2006,09,13,14,28,15.00
2006,09,13,14,29,15.00
2006,09,13,14,30,14.80
2006,09,13,14,31,14.70
2006,09,13,14,32,14.70
2006,09,13,14,33,14.70
2006,09,13,14,34,14.70
2006,09,13,14,35,14.70
2006,09,13,14,36,14.60
2006,09,13,14,37,14.50
2006,09,13,14,38,14.40
2006,09,13,14,39,14.30
2006,09,13,14,40,14.30
2006,09,13,14,41,14.30
2006,09,13,14,42,14.20
2006,09,13,14,43,14.20
2006,09,13,14,44,14.10
2006,09,13,14,45,14.20
2006,09,13,14,46,14.20
2006,09,13,14,47,14.20
2006,09,13,14,48,14.20
2006,09,13,14,49,14.20
2006,09,13,14,50,14.20
2006,09,13,14,51,14.20
2006,09,13,14,52,14.30
2006,09,13,14,53,14.30
2006,09,13,14,54,14.30
2006,09,13,14,55,14.30
2006,09,13,14,56,14.40
2006,09,13,14,57,14.50
2006,09,13,14,58,14.50
2006,09,13,14,59,14.60
2006,09,13,15,00,14.70
2006,09,13,15,01,14.80
2006,09,13,15,02,14.80
2006,09,13,15,03,14.90
2006,09,13,15,04,14.90
2006,09,13,15,05,15.00
2006,09,13,15,06,15.00
2006,09,13,15,07,15.00
2006,09,13,15,08,15.00
2006,09,13,15,09,15.00
2006,09,13,15,10,15.00
2006,09,13,15,11,15.00
2006,09,13,15,12,15.00
2006,09,13,15,13,15.00
2006,09,13,15,14,15.00
2006,09,13,15,15,15.00
2006,09,13,15,16,15.00
2006,09,13,15,17,15.00
2006,09,13,15,18,15.00
2006,09,13,15,19,14.90
2006,09,13,15,20,14.80
2006,09,13,15,21,14.80
2006,09,13,15,22,14.80
2006,09,13,15,23,14.80
2006,09,13,15,24,14.90
2006,09,13,15,25,15.00
2006,09,13,15,26,15.00
2006,09,13,15,27,15.00
2006,09,13,15,28,15.10
2006,09,13,15,29,15.20
2006,09,13,15,30,15.30
2006,09,13,15,31,15.50
2006,09,13,15,32,15.60
2006,09,13,15,33,15.80
2006,09,13,15,34,15.90
2006,09,13,15,35,15.90
2006,09,13,15,36,15.80
2006,09,13,15,37,15.80
2006,09,13,15,38,15.80
2006,09,13,15,39,15.80
2006,09,13,15,40,15.80
2006,09,13,15,41,15.80
2006,09,13,15,42,15.80
2006,09,13,15,43,15.80
2006,09,13,15,44,15.80
2006,09,13,15,45,15.70
2006,09,13,15,46,15.70
2006,09,13,15,47,15.60
2006,09,13,15,48,15.50
2006,09,13,15,49,15.50
2006,09,13,15,50,15.50
2006,09,13,15,51,15.40
2006,09,13,15,52,15.50
2006,09,13,15,53,15.50
2006,09,13,15,54,15.60
2006,09,13,15,55,15.60
2006,09,13,15,56,15.70
2006,09,13,15,57,15.80
2006,09,13,15,58,15.90
2006,09,13,15,59,16.00
2006,09,13,16,00,16.00
2006,09,13,16,01,16.00
2006,09,13,16,02,16.00
2006,09,13,16,03,15.90
2006,09,13,16,04,15.80
2006,09,13,16,05,15.70
2006,09,13,16,06,15.60
2006,09,13,16,07,15.60
2006,09,13,16,08,15.60
2006,09,13,16,09,15.70
2006,09,13,16,10,15.80
2006,09,13,16,11,15.80
2006,09,13,16,12,15.80
2006,09,13,16,13,15.80
2006,09,13,16,14,15.70
2006,09,13,16,15,15.70
2006,09,13,16,16,15.70
2006,09,13,16,17,15.60
2006,09,13,16,18,15.50
2006,09,13,16,19,15.40
2006,09,13,16,20,15.40
2006,09,13,16,21,15.30
2006,09,13,16,22,15.30
2006,09,13,16,23,15.30
2006,09,13,16,24,15.30
2006,09,13,16,25,15.30
2006,09,13,16,26,15.30
2006,09,13,16,27,15.30
2006,09,13,16,28,15.20
2006,09,13,16,29,15.20
2006,09,13,16,30,15.30
2006,09,13,16,31,15.30
2006,09,13,16,32,15.30
2006,09,13,16,33,15.30
2006,09,13,16,34,15.30
2006,09,13,16,35,15.20
2006,09,13,16,36,15.20
2006,09,13,16,37,15.20
2006,09,13,16,38,15.30
2006,09,13,16,39,15.40
2006,09,13,16,40,15.40
2006,09,13,16,41,15.40
2006,09,13,16,42,15.50
2006,09,13,16,43,15.60
2006,09,13,16,44,15.60
2006,09,13,16,45,15.70
2006,09,13,16,46,15.70
2006,09,13,16,47,15.70
2006,09,13,16,48,15.70
2006,09,13,16,49,15.70
2006,09,13,16,50,15.80
2006,09,13,16,51,15.90
2006,09,13,16,52,15.90
2006,09,13,16,53,16.00
2006,09,13,16,54,15.90
2006,09,13,16,55,16.00
2006,09,13,16,56,16.00
2006,09,13,16,57,16.00
2006,09,13,16,58,16.00
2006,09,13,16,59,15.90
2006,09,13,17,00,15.80
2006,09,13,17,01,15.80
2006,09,13,17,02,15.80
2006,09,13,17,03,15.90
2006,09,13,17,04,15.90
2006,09,13,17,05,15.90
2006,09,13,17,06,15.90
2006,09,13,17,07,15.90
2006,09,13,17,08,15.90
2006,09,13,17,09,15.80
2006,09,13,17,10,15.80
2006,09,13,17,11,15.80
2006,09,13,17,12,15.90
2006,09,13,17,13,15.90
2006,09,13,17,14,16.00
2006,09,13,17,15,16.10
2006,09,13,17,16,16.10
2006,09,13,17,17,16.00
2006,09,13,17,18,16.00
2006,09,13,17,19,15.90
2006,09,13,17,20,15.80
2006,09,13,17,21,15.80
2006,09,13,17,22,15.70
2006,09,13,17,23,15.70
2006,09,13,17,24,15.70
2006,09,13,17,25,15.60
2006,09,13,17,26,15.60
2006,09,13,17,27,15.50
2006,09,13,17,28,15.50
2006,09,13,17,29,15.50
2006,09,13,17,30,15.40
2006,09,13,17,31,15.40
2006,09,13,17,32,15.40
2006,09,13,17,33,15.40
2006,09,13,17,34,15.40
2006,09,13,17,35,15.30
2006,09,13,17,36,15.30
2006,09,13,17,37,15.30
2006,09,13,17,38,15.20
2006,09,13,17,39,15.10
2006,09,13,17,40,15.10
2006,09,13,17,41,15.00
2006,09,13,17,42,15.00
2006,09,13,17,43,15.00
2006,09,13,17,44,15.00
2006,09,13,17,45,15.00
2006,09,13,17,46,15.00
2006,09,13,17,47,15.00
2006,09,13,17,48,14.90
2006,09,13,17,49,14.80
2006,09,13,17,50,14.70
2006,09,13,17,51,14.70
2006,09,13,17,52,14.70
2006,09,13,17,53,14.60
2006,09,13,17,54,14.60
2006,09,13,17,55,14.60
2006,09,13,17,56,14.50
2006,09,13,17,57,14.50
2006,09,13,17,58,14.40
2006,09,13,17,59,14.40
2006,09,13,18,00,14.40
2006,09,13,18,01,14.40
2006,09,13,18,02,14.40
2006,09,13,18,03,14.40
2006,09,13,18,04,14.40
2006,09,13,18,05,14.40
2006,09,13,18,06,14.40
2006,09,13,18,07,14.40
2006,09,13,18,08,14.40
2006,09,13,18,09,14.40
2006,09,13,18,10,14.40
2006,09,13,18,11,14.40
2006,09,13,18,12,14.40
2006,09,13,18,13,14.30
2006,09,13,18,14,14.30
2006,09,13,18,15,14.30
2006,09,13,18,16,14.30
2006,09,13,18,17,14.30
2006,09,13,18,18,14.20
2006,09,13,18,19,14.20
2006,09,13,18,20,14.20
2006,09,13,18,21,14.20
2006,09,13,18,22,14.10
2006,09,13,18,23,14.10
2006,09,13,18,24,14.10
2006,09,13,18,25,14.10
2006,09,13,18,26,14.10
2006,09,13,18,27,14.10
2006,09,13,18,28,14.10
2006,09,13,18,29,14.00
2006,09,13,18,30,14.00
2006,09,13,18,31,14.00
2006,09,13,18,32,14.00
2006,09,13,18,33,13.90
2006,09,13,18,34,13.90
2006,09,13,18,35,13.90
2006,09,13,18,36,13.90
2006,09,13,18,37,13.90
2006,09,13,18,38,13.90
2006,09,13,18,39,13.90
2006,09,13,18,40,13.80
2006,09,13,18,41,13.80
2006,09,13,18,42,13.70
2006,09,13,18,43,13.70
2006,09,13,18,44,13.60
2006,09,13,18,45,13.60
2006,09,13,18,46,13.50
2006,09,13,18,47,13.40
2006,09,13,18,48,13.30
2006,09,13,18,49,13.30
2006,09,13,18,50,13.30
2006,09,13,18,51,13.20
2006,09,13,18,52,13.20
2006,09,13,18,53,13.20
2006,09,13,18,54,13.20
2006,09,13,18,55,13.20
2006,09,13,18,56,13.20
2006,09,13,18,57,13.20
2006,09,13,18,58,13.10
2006,09,13,18,59,13.10
2006,09,13,19,00,13.10
2006,09,13,19,01,13.10
2006,09,13,19,02,13.10
2006,09,13,19,03,13.00
2006,09,13,19,04,13.00
2006,09,13,19,05,13.00
2006,09,13,19,06,12.90
2006,09,13,19,07,13.00
2006,09,13,19,08,12.90
2006,09,13,19,09,12.90
2006,09,13,19,10,12.90
2006,09,13,19,11,12.90
2006,09,13,19,12,12.90
2006,09,13,19,13,12.90
2006,09,13,19,14,12.90
2006,09,13,19,15,12.90
2006,09,13,19,16,12.90
2006,09,13,19,17,12.90
2006,09,13,19,18,12.90
2006,09,13,19,19,12.90
2006,09,13,19,20,12.80
2006,09,13,19,21,12.80
2006,09,13,19,22,12.90
2006,09,13,19,23,12.90
2006,09,13,19,24,12.80
2006,09,13,19,25,12.80
2006,09,13,19,26,12.80
2006,09,13,19,27,12.80
2006,09,13,19,28,12.80
2006,09,13,19,29,12.80
2006,09,13,19,30,12.80
2006,09,13,19,31,12.80
2006,09,13,19,32,12.80
2006,09,13,19,33,12.70
2006,09,13,19,34,12.70
2006,09,13,19,35,12.70
2006,09,13,19,36,12.70
2006,09,13,19,37,12.70
2006,09,13,19,38,12.70
2006,09,13,19,39,12.70
2006,09,13,19,40,12.70
2006,09,13,19,41,12.60
2006,09,13,19,42,12.60
2006,09,13,19,43,12.60
2006,09,13,19,44,12.60
2006,09,13,19,45,12.60
2006,09,13,19,46,12.60
2006,09,13,19,47,12.60
2006,09,13,19,48,12.50
2006,09,13,19,49,12.50
2006,09,13,19,50,12.50
2006,09,13,19,51,12.50
2006,09,13,19,52,12.50
2006,09,13,19,53,12.40
2006,09,13,19,54,12.40
2006,09,13,19,55,12.40
2006,09,13,19,56,12.40
2006,09,13,19,57,12.40
2006,09,13,19,58,12.40
2006,09,13,19,59,12.40
2006,09,13,20,00,12.40
2006,09,13,20,01,12.40
2006,09,13,20,02,12.40
2006,09,13,20,03,12.40
2006,09,13,20,04,12.40
2006,09,13,20,05,12.40
2006,09,13,20,06,12.30
2006,09,13,20,07,12.30
2006,09,13,20,08,12.30
2006,09,13,20,09,12.30
2006,09,13,20,10,12.30
2006,09,13,20,11,12.30
2006,09,13,20,12,12.30
2006,09,13,20,13,12.30
2006,09,13,20,14,12.30
2006,09,13,20,15,12.30
2006,09,13,20,16,12.30
2006,09,13,20,17,12.20
2006,09,13,20,18,12.20
2006,09,13,20,19,12.20
2006,09,13,20,20,12.20
2006,09,13,20,21,12.20
2006,09,13,20,22,12.20
2006,09,13,20,23,12.20
2006,09,13,20,24,12.20
2006,09,13,20,25,12.20
2006,09,13,20,26,12.20
2006,09,13,20,27,12.20
2006,09,13,20,28,12.10
2006,09,13,20,29,12.10
2006,09,13,20,30,12.10
2006,09,13,20,31,12.10
2006,09,13,20,32,12.10
2006,09,13,20,33,12.10
2006,09,13,20,34,12.10
2006,09,13,20,35,12.10
2006,09,13,20,36,12.00
2006,09,13,20,37,12.00
2006,09,13,20,38,12.00
2006,09,13,20,39,12.00
2006,09,13,20,40,12.00
2006,09,13,20,41,12.00
2006,09,13,20,42,12.00
2006,09,13,20,43,12.00
2006,09,13,20,44,11.90
2006,09,13,20,45,11.90
2006,09,13,20,46,11.90
2006,09,13,20,47,11.90
2006,09,13,20,48,11.90
2006,09,13,20,49,11.90
2006,09,13,20,50,11.90
2006,09,13,20,51,11.90
2006,09,13,20,52,11.90
2006,09,13,20,53,11.90
2006,09,13,20,54,12.00
2006,09,13,20,55,12.00
2006,09,13,20,56,12.00
2006,09,13,20,57,12.00
2006,09,13,20,58,12.00
2006,09,13,20,59,11.90
2006,09,13,21,00,11.90
2006,09,13,21,01,11.90
2006,09,13,21,02,11.90
2006,09,13,21,03,11.90
2006,09,13,21,04,11.90
2006,09,13,21,05,11.90
2006,09,13,21,06,11.90
2006,09,13,21,07,11.90
2006,09,13,21,08,11.90
2006,09,13,21,09,11.90
2006,09,13,21,10,12.00
2006,09,13,21,11,12.00
2006,09,13,21,12,12.00
2006,09,13,21,13,12.00
2006,09,13,21,14,12.00
2006,09,13,21,15,12.00
2006,09,13,21,16,12.00
2006,09,13,21,17,12.00
2006,09,13,21,18,12.00
2006,09,13,21,19,12.00
2006,09,13,21,20,12.00
2006,09,13,21,21,12.00
2006,09,13,21,22,12.00
2006,09,13,21,23,12.00
2006,09,13,21,24,12.00
2006,09,13,21,25,12.00
2006,09,13,21,26,12.00
2006,09,13,21,27,12.00
2006,09,13,21,28,12.00
2006,09,13,21,29,12.00
2006,09,13,21,30,12.00
2006,09,13,21,31,12.00
2006,09,13,21,32,12.00
2006,09,13,21,33,12.00
2006,09,13,21,34,12.00
2006,09,13,21,35,12.10
2006,09,13,21,36,12.10
2006,09,13,21,37,12.10
2006,09,13,21,38,12.10
2006,09,13,21,39,12.10
2006,09,13,21,40,12.10
2006,09,13,21,41,12.10
2006,09,13,21,42,12.10
2006,09,13,21,43,12.10
2006,09,13,21,44,12.10
2006,09,13,21,45,12.10
2006,09,13,21,46,12.10
2006,09,13,21,47,12.10
2006,09,13,21,48,12.10
2006,09,13,21,49,12.10
2006,09,13,21,50,12.10
2006,09,13,21,51,12.10
2006,09,13,21,52,12.10
2006,09,13,21,53,12.00
2006,09,13,21,54,12.00
2006,09,13,21,55,12.00
2006,09,13,21,56,12.10
2006,09,13,21,57,12.10
2006,09,13,21,58,12.10
2006,09,13,21,59,12.10
2006,09,13,22,00,12.10
2006,09,13,22,01,12.10
2006,09,13,22,02,12.10
2006,09,13,22,03,12.10
2006,09,13,22,04,12.10
2006,09,13,22,05,12.10
2006,09,13,22,06,12.10
2006,09,13,22,07,12.10
2006,09,13,22,08,12.10
2006,09,13,22,09,12.10
2006,09,13,22,10,12.10
2006,09,13,22,11,12.10
2006,09,13,22,12,12.10
2006,09,13,22,13,12.10
2006,09,13,22,14,12.10
2006,09,13,22,15,12.10
2006,09,13,22,16,12.10
2006,09,13,22,17,12.10
2006,09,13,22,18,12.00
2006,09,13,22,19,12.00
2006,09,13,22,20,12.00
2006,09,13,22,21,12.00
2006,09,13,22,22,12.00
2006,09,13,22,23,11.90
2006,09,13,22,24,11.90
2006,09,13,22,25,11.90
2006,09,13,22,26,11.90
2006,09,13,22,27,11.90
2006,09,13,22,28,11.90
2006,09,13,22,29,11.90
2006,09,13,22,30,11.90
2006,09,13,22,31,11.90
2006,09,13,22,32,11.90
2006,09,13,22,33,11.90
2006,09,13,22,34,11.90
2006,09,13,22,35,11.90
2006,09,13,22,36,11.90
2006,09,13,22,37,11.90
2006,09,13,22,38,11.90
2006,09,13,22,39,11.90
2006,09,13,22,40,11.90
2006,09,13,22,41,11.90
2006,09,13,22,42,11.90
2006,09,13,22,43,11.90
2006,09,13,22,44,11.90
2006,09,13,22,45,11.90
2006,09,13,22,46,11.90
2006,09,13,22,47,11.90
2006,09,13,22,48,11.90
2006,09,13,22,49,12.00
2006,09,13,22,50,12.00
2006,09,13,22,51,12.00
2006,09,13,22,52,12.00
2006,09,13,22,53,12.00
2006,09,13,22,54,12.00
2006,09,13,22,55,12.00
2006,09,13,22,56,12.00
2006,09,13,22,57,12.00
2006,09,13,22,58,12.00
2006,09,13,22,59,12.00
2006,09,13,23,00,12.00
2006,09,13,23,01,12.00
2006,09,13,23,02,12.00
2006,09,13,23,03,12.00
2006,09,13,23,04,12.00
2006,09,13,23,05,12.00
2006,09,13,23,06,12.00
2006,09,13,23,07,12.00
2006,09,13,23,08,12.00
2006,09,13,23,09,12.10
2006,09,13,23,10,12.10
2006,09,13,23,11,12.10
2006,09,13,23,12,12.10
2006,09,13,23,13,12.00
2006,09,13,23,14,12.00
2006,09,13,23,15,12.00
2006,09,13,23,16,11.90
2006,09,13,23,17,11.90
2006,09,13,23,18,11.90
2006,09,13,23,19,11.90
2006,09,13,23,20,11.90
2006,09,13,23,21,11.90
2006,09,13,23,22,11.90
2006,09,13,23,23,11.90
2006,09,13,23,24,11.90
2006,09,13,23,25,11.90
2006,09,13,23,26,11.90
2006,09,13,23,27,11.90
2006,09,13,23,28,11.90
2006,09,13,23,29,11.90
2006,09,13,23,30,11.90
2006,09,13,23,31,11.90
2006,09,13,23,32,11.90
2006,09,13,23,33,11.90
2006,09,13,23,34,11.90
2006,09,13,23,35,11.80
2006,09,13,23,36,11.80
2006,09,13,23,37,11.80
2006,09,13,23,38,11.80
2006,09,13,23,39,11.80
2006,09,13,23,40,11.80
2006,09,13,23,41,11.80
2006,09,13,23,42,11.80
2006,09,13,23,43,11.80
2006,09,13,23,44,11.80
2006,09,13,23,45,11.80
2006,09,13,23,46,11.80
2006,09,13,23,47,11.80
2006,09,13,23,48,11.80
2006,09,13,23,49,11.80
2006,09,13,23,50,11.80
2006,09,13,23,51,11.80
2006,09,13,23,52,11.80
2006,09,13,23,53,11.80
2006,09,13,23,54,11.80
2006,09,13,23,55,11.80
2006,09,13,23,56,11.80
2006,09,13,23,57,11.80
2006,09,13,23,58,11.80
2006,09,13,23,59,11.80
